Temp
62 62 62 62 61 61 61 61 61 60 60 60 60 60 60 60 60 60 61 61 61 61 61 62 64 64 63 65 74 85 83 83 83 83 81 80 77 72 69 71 75 75 77 80 82 81 79
62 62 62 62 61 61 61 61 61 60 60 60 60 60 60 60 60 60 60 60 60 60 61 62 64 65 61 62 82 84 84 83 83 82 80 78 77 76 72 73 72 78 78 81 81 79 80
62 62 62 61 61 61 60 60 60 60 60 60 60 60 60 60 60 60 59 59 60 60 61 63 65 66 60 72 81 80 79 78 80 82 79 81 80 76 74 73 77 77 74 76 77 78 77
61 61 61 61 61 60 60 60 60 60 59 60 60 60 60 59 60 59 58 58 59 61 62 64 65 59 62 78 78 81 78 81 81 80 81 83 80 75 71 76 76 72 71 64 74 76 77
62 61 61 61 61 60 60 60 60 59 59 59 59 59 59 59 59 58 58 58 60 62 64 64 55 56 64 81 77 80 81 79 79 79 80 92 79 70 73 66 63 65 59 63 69 76 75
61 61 61 61 60 60 60 59 60 59 59 59 59 59 59 58 58 58 57 58 60 61 63 68 71 59 70 74 77 79 76 82 79 78 80 77 68 65 62 62 55 58 60 65 63 72 72
61 61 61 60 60 60 59 59 59 59 59 59 59 58 58 58 58 57 53 56 60 57 56 64 64 68 74 79 80 77 81 81 77 75 63 67 64 59 63 63 64 63 62 62 66 74 71
61 61 60 60 59 60 59 59 59 59 59 59 59 58 58 58 57 57 49 57 62 63 60 67 69 70 74 74 72 76 81 73 70 63 64 64 59 68 69 68 65 61 60 62 69 73 70
61 60 60 60 60 59 59 59 59 59 59 59 58 58 57 57 56 51 50 61 65 65 57 67 67 69 72 75 73 74 79 73 67 64 62 60 66 73 70 66 64 58 58 62 66 68 69
60 60 60 60 59 59 59 58 59 59 59 59 58 58 57 56 51 52 57 62 63 65 54 62 64 75 74 74 71 83 81 77 68 65 66 63 69 70 65 65 64 51 69 70 68 61 56
60 60 60 59 59 59 59 58 58 59 58 58 58 57 55 55 47 55 64 60 60 66 47 69 68 78 71 73 71 74 79 77 67 66 65 65 66 65 65 67 67 67 70 66 66 59 54
60 60 60 59 59 59 58 58 58 58 58 58 57 56 56 51 49 55 58 59 65 57 50 65 71 69 68 67 71 73 75 78 74 68 64 67 71 69 70 72 72 71 65 61 56 53 49
60 60 60 59 59 58 58 58 58 58 57 56 55 54 54 57 60 57 57 64 55 49 66 65 64 66 64 64 67 68 69 65 63 55 54 65 67 69 72 64 68 63 57 49 49 47 48
60 59 59 59 58 58 58 58 58 58 56 55 53 53 51 54 52 55 63 61 45 63 61 67 66 65 64 66 64 66 65 62 63 62 55 55 58 65 71 69 64 58 56 51 44 44 49
59 59 59 59 58 58 58 58 58 57 56 54 51 47 47 52 54 53 63 50 55 60 66 66 65 62 59 63 65 63 63 63 67 67 60 53 58 71 71 70 71 59 55 58 49 44 48
58 58 59 58 58 58 58 58 58 57 56 53 48 50 56 58 59 62 59 50 56 66 70 67 60 63 59 61 62 60 60 67 67 69 63 60 55 63 72 72 70 62 64 55 51 45 42
58 58 58 58 58 58 58 58 58 56 55 53 51 59 63 58 60 62 53 53 62 70 72 67 62 60 60 61 62 61 64 67 71 67 67 58 57 63 66 61 57 62 57 53 52 48 46
58 58 58 58 58 58 58 58 57 55 53 51 55 56 63 62 59 46 52 56 62 68 71 69 67 64 64 65 61 60 63 64 71 69 63 57 56 52 55 63 63 60 55 52 51 48 44
59 58 58 58 58 58 58 58 56 55 54 49 57 56 64 65 53 51 54 62 65 68 67 68 66 68 65 61 59 63 65 70 70 68 62 62 54 49 54 60 62 58 57 53 49 47 46
58 58 58 58 58 58 58 57 56 55 54 50 58 56 59 58 52 52 52 58 61 72 68 67 67 69 64 60 61 61 64 71 70 67 67 64 49 52 49 51 54 55 59 56 51 48 46
58 58 58 58 58 58 58 58 57 56 55 52 55 53 54 54 56 53 53 58 62 62 67 68 67 66 63 55 58 59 65 66 70 68 63 60 53 48 49 56 55 56 56 57 53 52 53
57 57 57 57 58 58 58 58 57 56 54 54 51 55 53 52 53 53 49 55 60 62 62 62 63 65 62 58 58 59 62 59 60 64 57 56 51 48 49 56 55 55 57 57 55 55 52
57 57 57 57 58 58 58 58 57 56 54 54 52 53 55 52 52 53 55 60 65 64 69 68 67 63 63 62 64 61 61 62 59 62 57 55 51 48 46 51 53 49 53 54 54 56 55
57 57 57 57 58 58 58 58 58 56 55 50 50 50 53 55 56 57 62 64 64 62 64 66 66 62 64 65 64 62 61 58 57 55 56 51 48 45 44 45 39 51 58 60 56 57 58
56 57 57 57 58 58 58 58 58 57 56 50 49 51 51 51 55 60 63 62 62 62 63 65 67 63 62 62 57 54 53 56 55 53 51 53 47 42 45 41 47 56 58 58 54 53 59
56 56 57 56 57 58 58 58 58 58 56 49 49 50 51 52 55 60 59 59 56 54 59 61 64 61 62 53 53 45 47 48 51 51 47 50 49 51 41 42 41 51 60 62 59 48 60
56 56 56 57 57 58 58 58 58 58 57 54 50 51 52 50 54 54 56 56 57 54 54 53 59 60 57 49 47 46 48 52 48 46 45 46 45 46 42 43 48 56 61 62 48 50 58
56 56 56 56 56 57 57 58 58 58 58 54 50 52 52 48 52 57 62 57 58 55 54 56 57 57 52 49 48 46 46 48 46 47 45 48 45 43 42 40 44 58 60 53 55 54 59
56 56 56 56 56 56 57 57 57 57 57 56 48 53 52 50 55 55 61 64 64 63 57 51 55 52 54 49 46 46 47 46 43 45 48 48 49 47 47 47 53 55 55 56 58 57 58
MSLP
1019.17 1018.80 1018.40 1018.08 1017.66 1017.26 1016.97 1016.70 1016.43 1016.25 1016.03 1015.73 1015.42 1015.15 1014.92 1014.66 1014.42 1014.17 1013.83 1013.47 1013.20 1012.92 1012.61 1012.22 1011.75 1011.24 1010.47 1009.82 1007.68 1005.78 1005.63 1005.73 1005.68 1005.68 1005.72 1005.85 1006.01 1006.24 1006.42 1006.38 1006.06 1005.92 1005.83 1005.61 1005.19 1005.57 1006.28
1019.32 1018.85 1018.49 1018.11 1017.74 1017.27 1016.91 1016.62 1016.34 1016.12 1015.88 1015.59 1015.31 1015.03 1014.77 1014.54 1014.29 1014.02 1013.74 1013.39 1013.07 1012.79 1012.52 1012.19 1011.74 1011.31 1010.87 1009.18 1006.08 1005.88 1005.91 1005.76 1005.78 1005.78 1005.80 1005.86 1006.00 1006.08 1006.26 1006.29 1006.17 1005.89 1005.68 1005.32 1005.34 1005.55 1006.18
1019.46 1018.98 1018.50 1018.12 1017.71 1017.28 1016.90 1016.54 1016.23 1015.95 1015.69 1015.38 1015.12 1014.85 1014.57 1014.32 1014.03 1013.80 1013.57 1013.25 1012.92 1012.64 1012.43 1012.16 1011.78 1011.40 1010.61 1007.36 1005.83 1005.93 1005.90 1005.85 1005.74 1005.79 1005.91 1005.75 1005.83 1006.10 1006.18 1006.37 1006.22 1006.06 1005.87 1005.48 1005.42 1005.76 1006.18
1019.52 1019.07 1018.52 1018.11 1017.68 1017.24 1016.83 1016.46 1016.11 1015.76 1015.47 1015.18 1014.87 1014.59 1014.32 1014.08 1013.78 1013.55 1013.36 1013.04 1012.71 1012.42 1012.24 1012.04 1011.79 1011.41 1009.62 1006.34 1006.04 1005.85 1005.69 1005.59 1005.56 1005.70 1005.89 1005.67 1005.75 1006.19 1006.66 1006.71 1006.60 1006.75 1006.57 1006.56 1005.58 1005.86 1006.20
1019.55 1019.07 1018.53 1018.05 1017.65 1017.16 1016.75 1016.32 1015.94 1015.59 1015.24 1014.92 1014.63 1014.32 1014.07 1013.86 1013.57 1013.34 1013.10 1012.74 1012.36 1012.06 1011.97 1011.90 1011.82 1011.13 1008.55 1006.03 1005.94 1005.28 1005.39 1005.69 1005.63 1005.65 1005.70 1005.66 1006.18 1007.18 1007.36 1007.67 1007.90 1008.10 1007.88 1007.33 1006.52 1005.82 1006.22
1019.55 1019.03 1018.59 1018.03 1017.55 1017.09 1016.70 1016.27 1015.79 1015.42 1015.02 1014.68 1014.39 1014.11 1013.86 1013.67 1013.42 1013.16 1012.72 1012.20 1011.95 1011.86 1011.89 1011.72 1011.37 1011.04 1007.87 1006.34 1005.59 1005.26 1005.48 1005.57 1005.75 1005.81 1005.96 1006.41 1007.41 1008.06 1008.61 1008.54 1009.18 1009.01 1008.65 1007.80 1007.26 1006.48 1006.27
1019.46 1019.06 1018.58 1018.15 1017.57 1017.01 1016.57 1016.20 1015.65 1015.25 1014.82 1014.44 1014.14 1013.90 1013.71 1013.52 1013.32 1013.13 1012.53 1012.01 1012.26 1012.02 1011.36 1010.06 1009.61 1008.92 1007.36 1006.23 1005.65 1005.34 1005.29 1005.56 1005.86 1006.43 1007.30 1007.74 1008.56 1008.80 1008.84 1008.58 1008.79 1008.92 1008.78 1008.31 1006.90 1006.27 1006.50
1019.66 1019.15 1018.58 1018.12 1017.49 1016.93 1016.48 1016.09 1015.54 1015.08 1014.61 1014.21 1013.91 1013.65 1013.50 1013.34 1013.19 1013.12 1013.14 1012.05 1010.63 1010.40 1009.98 1008.97 1008.73 1008.18 1007.05 1006.52 1005.99 1005.30 1005.14 1005.85 1006.34 1007.20 1007.70 1008.51 1008.63 1008.30 1008.29 1008.27 1008.51 1008.59 1008.42 1007.92 1006.95 1006.36 1006.53
1019.74 1019.19 1018.58 1018.02 1017.36 1016.90 1016.42 1015.95 1015.41 1014.88 1014.38 1013.93 1013.66 1013.43 1013.25 1013.13 1013.02 1013.11 1012.51 1010.89 1009.99 1009.83 1009.81 1008.30 1007.87 1007.26 1006.22 1006.21 1005.60 1005.24 1005.32 1005.92 1006.64 1007.41 1007.87 1008.35 1008.06 1007.53 1007.68 1007.74 1008.06 1008.11 1008.19 1007.76 1007.44 1006.77 1006.90
1019.66 1019.06 1018.44 1017.92 1017.35 1016.81 1016.31 1015.83 1015.22 1014.66 1014.15 1013.67 1013.41 1013.19 1013.04 1012.97 1013.42 1012.58 1011.62 1010.08 1009.86 1009.79 1009.49 1007.94 1007.10 1005.70 1005.81 1005.70 1005.45 1004.94 1005.17 1005.80 1006.58 1007.21 1007.84 1007.95 1007.47 1007.41 1007.50 1007.58 1007.64 1007.69 1006.86 1007.28 1007.42 1007.93 1008.24
1019.66 1019.09 1018.49 1017.92 1017.24 1016.69 1016.16 1015.63 1015.06 1014.45 1013.90 1013.43 1013.15 1012.97 1012.90 1013.05 1012.89 1012.15 1010.56 1010.03 1009.71 1009.57 1008.74 1006.94 1006.06 1004.98 1005.35 1005.61 1005.37 1005.15 1005.23 1005.52 1006.51 1007.05 1007.68 1007.57 1007.30 1007.07 1006.95 1006.65 1007.06 1006.96 1006.97 1007.48 1007.94 1008.78 1009.28
1019.65 1019.03 1018.39 1017.77 1017.16 1016.63 1016.04 1015.44 1014.86 1014.28 1013.64 1013.16 1012.87 1012.75 1012.76 1012.98 1012.88 1010.80 1010.19 1009.98 1009.77 1009.46 1007.48 1006.04 1005.26 1005.11 1005.51 1005.48 1005.42 1005.40 1005.45 1005.60 1006.28 1006.89 1007.30 1007.17 1006.58 1006.38 1005.97 1005.89 1006.18 1006.83 1007.39 1008.57 1009.49 1010.20 1011.14
1019.66 1019.11 1018.51 1017.92 1017.28 1016.61 1015.94 1015.25 1014.60 1014.01 1013.37 1012.82 1012.58 1012.57 1012.67 1012.09 1011.31 1010.30 1010.15 1010.03 1009.97 1008.44 1006.60 1005.73 1005.22 1005.17 1005.40 1005.67 1005.65 1005.63 1006.02 1006.44 1007.00 1007.67 1008.01 1007.22 1006.44 1005.83 1005.51 1005.90 1006.26 1007.16 1008.41 1009.90 1011.09 1011.70 1012.10
1019.89 1019.31 1018.66 1017.98 1017.23 1016.50 1015.76 1015.04 1014.33 1013.65 1012.97 1012.37 1011.94 1012.10 1011.99 1011.22 1010.75 1010.47 1010.14 1010.07 1009.50 1007.29 1006.19 1005.26 1005.02 1005.36 1005.71 1005.80 1005.87 1006.09 1006.51 1007.11 1007.37 1007.83 1008.32 1007.82 1006.74 1005.83 1005.29 1005.51 1006.17 1007.36 1008.53 1010.12 1011.39 1012.60 1012.45
1020.01 1019.34 1018.65 1017.94 1017.18 1016.37 1015.56 1014.82 1014.14 1013.43 1012.71 1012.13 1011.89 1012.02 1011.79 1009.94 1010.31 1011.05 1010.50 1010.42 1008.60 1006.99 1005.81 1005.15 1005.11 1005.50 1005.83 1005.93 1006.10 1006.39 1006.73 1007.18 1007.07 1007.15 1007.94 1007.75 1006.94 1005.80 1005.46 1005.40 1005.89 1007.50 1008.70 1009.70 1011.25 1012.70 1012.90
1020.06 1019.36 1018.55 1017.80 1017.08 1016.32 1015.54 1014.77 1013.99 1013.21 1012.44 1011.97 1011.88 1011.53 1010.55 1009.51 1009.80 1010.14 1010.38 1010.04 1008.36 1006.71 1005.47 1004.92 1004.97 1005.15 1005.96 1006.06 1006.34 1006.63 1006.82 1006.50 1006.62 1006.83 1006.96 1007.59 1007.42 1006.52 1005.98 1005.87 1006.49 1007.10 1008.60 1010.00 1011.34 1012.77 1013.44
1020.05 1019.41 1018.66 1017.89 1017.06 1016.28 1015.50 1014.62 1013.78 1012.93 1012.08 1011.48 1011.55 1011.08 1010.13 1009.65 1009.92 1010.18 1010.83 1009.83 1008.01 1006.08 1005.45 1004.72 1004.65 1005.10 1005.67 1006.09 1006.42 1006.59 1006.77 1006.56 1006.42 1006.85 1007.08 1007.67 1008.21 1007.70 1007.07 1007.59 1008.03 1008.26 1009.18 1010.68 1011.89 1012.95 1013.43
1020.06 1019.46 1018.71 1017.93 1017.10 1016.28 1015.46 1014.59 1013.70 1012.73 1011.78 1011.55 1011.13 1011.07 1010.15 1009.93 1010.45 1011.32 1010.68 1009.10 1007.55 1005.89 1004.95 1004.50 1004.67 1005.06 1005.45 1006.06 1006.58 1006.68 1006.66 1006.52 1006.40 1006.61 1007.49 1008.31 1009.02 1009.18 1009.02 1008.63 1008.62 1008.97 1009.84 1010.86 1012.32 1013.53 1013.79
1020.12 1019.53 1018.85 1018.08 1017.24 1016.38 1015.54 1014.61 1013.66 1012.68 1011.98 1011.58 1011.26 1011.21 1010.14 1009.91 1010.78 1011.13 1010.05 1008.85 1007.59 1006.13 1005.31 1004.78 1004.79 1004.79 1005.43 1006.26 1006.71 1006.60 1006.56 1006.67 1006.36 1007.04 1007.78 1008.47 1009.67 1010.42 1010.09 1009.65 1009.36 1009.89 1010.35 1011.20 1012.14 1012.81 1013.61
1020.14 1019.57 1018.94 1018.23 1017.39 1016.51 1015.60 1014.67 1013.63 1012.56 1011.82 1011.74 1011.24 1011.62 1011.23 1010.76 1011.02 1010.67 1010.00 1008.74 1007.51 1006.11 1005.58 1005.33 1005.20 1005.10 1005.82 1006.74 1006.81 1006.92 1006.86 1006.82 1007.02 1007.43 1008.11 1008.58 1010.75 1011.01 1011.10 1010.86 1010.87 1010.82 1010.84 1011.24 1012.03 1013.06 1013.69
1020.30 1019.70 1019.07 1018.41 1017.61 1016.69 1015.74 1014.75 1013.68 1012.63 1011.69 1011.65 1011.60 1012.25 1011.73 1011.50 1011.18 1010.65 1009.94 1008.89 1007.83 1006.86 1005.91 1005.64 1005.75 1005.82 1006.17 1007.05 1007.28 1007.44 1007.42 1007.54 1007.66 1008.12 1008.56 1009.66 1011.22 1011.56 1011.42 1011.23 1011.10 1011.03 1011.20 1011.47 1012.08 1012.33 1012.98
1020.40 1019.85 1019.18 1018.50 1017.77 1016.91 1016.02 1015.06 1013.89 1012.59 1011.54 1011.70 1012.54 1012.46 1011.95 1011.48 1011.02 1010.52 1009.88 1008.70 1007.89 1007.15 1006.80 1006.42 1006.54 1006.57 1006.53 1007.20 1007.45 1007.74 1007.80 1008.01 1008.12 1008.58 1009.59 1010.62 1011.93 1012.26 1012.27 1011.70 1011.70 1011.55 1011.58 1011.54 1011.86 1012.35 1012.71
1020.44 1019.92 1019.30 1018.61 1017.93 1017.18 1016.39 1015.54 1014.63 1013.43 1011.90 1012.66 1013.05 1012.64 1012.26 1011.69 1011.07 1010.40 1009.80 1008.68 1007.72 1007.28 1007.09 1006.86 1007.08 1007.27 1007.47 1007.48 1007.60 1007.90 1008.04 1008.17 1008.38 1009.11 1010.35 1011.42 1012.51 1013.58 1013.40 1012.68 1012.29 1012.13 1011.98 1011.90 1012.23 1012.50 1012.85
1020.43 1019.92 1019.34 1018.76 1018.06 1017.42 1016.76 1016.06 1015.36 1014.76 1014.40 1014.45 1014.02 1013.62 1012.92 1012.34 1011.22 1010.46 1009.55 1008.75 1008.24 1007.89 1007.53 1007.55 1007.44 1007.66 1008.05 1007.82 1008.00 1008.34 1008.66 1008.95 1009.16 1009.87 1010.54 1012.22 1013.47 1014.08 1014.47 1013.78 1013.44 1012.62 1012.07 1011.96 1012.48 1012.95 1013.00
1020.50 1019.96 1019.44 1018.92 1018.27 1017.66 1017.05 1016.46 1015.86 1015.31 1014.82 1014.55 1014.22 1014.01 1013.58 1012.81 1011.77 1010.61 1009.79 1009.26 1008.72 1008.42 1008.46 1008.41 1008.46 1008.82 1008.70 1008.97 1009.82 1010.35 1010.41 1010.20 1010.25 1010.89 1011.41 1012.12 1013.45 1015.04 1015.24 1015.00 1014.12 1012.80 1012.04 1012.12 1012.43 1013.37 1013.36
1020.54 1020.07 1019.51 1019.03 1018.46 1017.89 1017.43 1016.85 1016.26 1015.66 1015.09 1014.61 1014.41 1014.20 1013.87 1013.31 1012.09 1011.20 1010.51 1009.97 1009.95 1009.71 1009.49 1009.26 1009.11 1009.09 1009.39 1010.89 1011.65 1012.21 1012.18 1011.70 1011.63 1011.91 1012.29 1012.90 1013.34 1014.08 1015.57 1015.24 1014.25 1012.61 1011.96 1012.01 1012.42 1013.33 1013.25
1020.52 1020.09 1019.64 1019.11 1018.61 1018.10 1017.60 1017.13 1016.62 1016.05 1015.52 1015.20 1014.75 1014.34 1014.10 1013.87 1012.12 1011.46 1010.90 1010.48 1010.38 1010.49 1010.67 1010.53 1010.37 1010.12 1010.40 1012.23 1013.30 1013.74 1013.26 1012.62 1012.59 1012.69 1013.12 1013.67 1014.52 1014.94 1015.26 1014.74 1013.73 1012.59 1012.15 1012.19 1013.17 1013.72 1013.28
1020.49 1020.06 1019.64 1019.23 1018.80 1018.31 1017.82 1017.32 1016.87 1016.34 1015.77 1015.51 1015.04 1014.58 1014.70 1014.46 1012.68 1011.63 1010.87 1010.54 1010.61 1010.88 1011.19 1011.27 1011.52 1011.44 1012.16 1013.31 1014.11 1014.33 1014.01 1013.58 1013.44 1013.29 1013.42 1014.05 1014.71 1015.38 1015.70 1015.14 1014.02 1012.91 1012.65 1013.06 1013.51 1013.45 1013.51
1020.46 1020.03 1019.58 1019.17 1018.77 1018.33 1017.90 1017.47 1016.99 1016.56 1016.05 1015.53 1015.41 1014.81 1014.73 1014.64 1013.10 1011.92 1010.87 1010.35 1010.27 1010.17 1010.73 1011.53 1011.89 1012.08 1012.45 1013.49 1014.41 1014.56 1014.56 1014.32 1014.42 1014.15 1013.72 1014.29 1014.35 1014.66 1015.43 1014.87 1013.89 1013.34 1013.00 1013.22 1013.42 1013.61 1013.85
Wind_Speed
15 15 14 14 13 13 13 13 12 13 13 13 13 13 13 14 14 14 14 14 14 14 15 15 15 15 5 3 10 4 4 6 2 0 2 3 5 3 4 3 2 3 2 4 5 5 4
15 15 14 14 14 14 14 13 13 14 13 13 13 14 14 14 14 14 14 14 14 14 14 14 14 13 2 3 3 5 8 2 1 2 2 1 2 2 1 3 2 4 4 5 5 5 2
16 15 15 15 15 15 14 14 14 14 14 14 14 14 14 14 14 14 14 15 15 14 13 11 10 3 1 15 2 7 4 2 3 1 4 2 2 2 2 5 3 4 2 4 3 6 4
17 16 15 15 15 16 16 15 16 16 15 14 15 15 14 14 14 14 14 15 16 14 11 9 5 1 8 5 5 9 1 3 2 4 3 4 2 3 2 4 7 5 6 4 5 7 1
16 16 16 16 15 15 15 16 16 16 15 15 15 16 15 14 13 14 14 16 16 12 8 5 1 2 11 9 3 3 4 1 2 1 3 1 5 4 6 3 6 8 2 3 8 6 5
17 17 16 17 17 16 16 16 16 17 16 16 16 15 15 13 13 14 16 16 4 2 2 3 2 3 5 1 3 1 2 2 2 3 5 8 6 4 5 5 2 3 4 5 4 3 3
18 18 18 18 18 19 17 17 18 17 17 16 16 15 14 12 11 11 9 2 4 2 0 8 5 4 5 9 4 2 4 4 3 10 2 5 6 3 5 3 3 3 3 5 7 6 5
18 18 18 19 19 19 19 19 19 18 18 17 16 14 12 11 9 7 1 2 2 2 6 7 3 7 6 3 3 1 3 4 4 2 3 6 3 6 4 4 4 3 2 5 6 2 5
17 17 17 18 18 19 20 20 20 19 17 18 16 13 11 9 7 2 2 6 4 5 2 6 5 5 5 7 3 3 6 3 3 4 3 5 4 2 0 4 2 3 4 4 7 4 4
17 18 18 19 19 20 20 20 21 21 18 18 15 13 10 7 3 1 4 2 5 5 5 4 3 6 4 3 2 4 5 5 2 5 5 4 3 1 1 5 7 2 6 5 2 4 2
17 18 19 19 20 21 22 21 20 20 18 16 15 12 6 2 2 2 0 7 3 3 4 3 3 1 1 7 1 1 3 5 5 3 5 7 3 2 4 3 5 8 4 2 3 4 4
18 19 20 21 22 23 23 23 22 21 18 17 14 9 2 2 2 7 6 5 3 7 1 3 4 5 5 1 2 2 3 5 1 2 0 7 2 3 7 2 6 3 4 8 6 4 3
21 21 21 21 22 22 23 23 23 22 19 16 10 7 5 1 3 4 4 3 6 4 2 4 4 4 4 3 2 2 6 4 4 3 4 6 4 4 3 1 3 3 7 4 5 6 3
21 21 22 23 21 23 24 24 25 23 20 16 12 5 5 5 2 6 2 6 2 3 4 1 3 4 5 5 1 3 5 2 1 5 2 1 7 2 1 6 5 3 7 7 3 3 2
21 22 22 23 24 23 26 25 26 24 21 19 3 1 3 5 9 1 6 3 6 4 2 2 3 5 0 2 4 2 6 7 7 10 7 4 5 4 1 2 6 2 1 4 8 3 4
21 22 23 23 24 24 26 26 26 24 24 14 1 0 3 3 8 4 6 5 4 4 4 1 4 4 6 5 5 4 5 3 4 7 3 3 1 2 5 3 6 4 5 3 4 2 2
21 22 21 23 24 25 27 27 27 24 22 5 1 4 4 2 1 6 3 7 6 7 5 4 2 4 3 4 6 6 8 0 1 2 4 4 4 4 4 6 2 5 4 7 6 3 6
21 23 22 23 24 26 27 27 26 25 22 3 2 4 3 1 5 1 3 5 5 5 3 3 3 3 6 5 4 3 4 1 6 4 4 2 5 2 1 3 1 2 3 4 6 3 1
21 20 22 22 24 25 26 28 28 27 19 1 3 2 3 3 3 2 5 5 4 4 4 3 2 2 1 3 4 2 3 1 4 4 3 5 3 3 7 8 5 5 3 5 5 3 5
19 20 21 23 24 25 27 28 29 28 21 0 3 4 4 5 0 3 2 5 4 6 3 2 3 4 5 5 5 4 3 3 3 4 6 8 4 6 7 5 3 4 4 3 4 3 4
20 21 22 22 23 25 26 28 30 31 20 0 4 1 2 3 3 3 0 3 3 4 3 6 5 5 4 4 3 3 3 1 5 4 5 5 4 1 2 3 2 3 2 5 5 5 6
19 20 21 22 22 24 25 27 31 33 20 4 3 2 3 1 1 3 2 2 2 1 3 3 5 3 3 5 3 6 5 2 3 4 3 3 2 2 2 2 3 4 4 5 1 3 4
18 19 20 21 22 22 24 26 25 31 18 4 3 2 3 3 2 3 3 5 3 1 6 5 7 5 7 2 4 2 2 2 1 6 3 3 7 4 5 3 5 4 4 3 3 3 5
17 18 19 20 21 22 22 23 24 23 17 0 1 1 3 2 2 0 4 1 5 4 5 3 4 4 1 3 3 4 6 5 1 3 3 7 6 3 3 4 2 5 2 6 8 4 5
17 17 18 19 20 20 21 22 23 21 22 0 2 2 2 1 1 3 7 4 4 6 6 4 5 1 0 7 5 6 6 5 3 5 2 3 6 4 5 3 5 5 4 4 3 1 2
16 16 17 18 19 19 20 21 21 22 21 2 2 0 2 3 2 2 2 3 2 3 5 3 2 2 7 5 5 4 5 4 3 1 4 6 6 6 3 5 7 6 2 3 4 3 5
15 16 16 17 18 18 19 20 20 21 20 5 3 2 3 2 4 1 1 2 2 3 1 4 6 6 4 3 3 3 3 2 1 2 1 3 4 5 3 3 5 5 2 3 5 7 5
14 15 16 16 17 17 18 18 19 20 21 9 3 3 3 2 6 3 2 2 2 3 3 3 4 4 4 4 4 3 2 2 2 1 1 5 5 3 3 3 5 2 3 4 5 2 3
14 15 16 16 17 18 18 17 17 17 18 13 2 2 1 3 5 2 5 4 4 5 6 1 4 3 5 6 1 3 1 2 3 2 1 0 5 5 5 5 3 4 2 3 4 4 2
Wind_Direction
1 357 355 353 353 353 351 349 346 345 340 335 333 329 327 324 322 320 318 319 319 320 322 326 328 330 346 0 253 337 157 132 128 137 41 27 24 23 26 319 315 84 335 240 224 201 175
360 357 353 351 351 351 349 347 346 343 337 333 331 328 325 322 318 316 315 314 314 314 318 322 327 321 1 267 243 30 7 72 111 23 1 42 2 273 85 324 59 307 252 247 182 208 225
359 355 354 349 349 349 349 346 344 340 337 331 329 328 324 321 317 314 312 309 309 308 311 314 322 337 64 233 10 334 311 132 174 164 317 241 199 70 27 331 334 278 315 350 215 176 178
355 353 352 349 347 346 347 346 343 339 336 330 328 326 323 321 316 313 310 306 304 301 299 299 306 12 249 256 312 307 187 330 242 252 219 251 210 88 55 322 12 33 43 4 284 130 240
354 350 350 348 345 344 342 343 343 339 335 331 327 325 323 321 317 315 309 303 297 289 281 262 290 82 269 317 285 266 153 197 285 289 207 139 78 76 18 59 21 9 344 301 314 190 134
352 354 349 347 345 344 340 339 341 340 336 331 327 325 323 322 321 320 309 297 272 324 209 201 265 0 276 331 281 281 160 113 61 320 28 43 50 48 34 62 218 301 340 315 262 298 124
354 353 349 348 345 344 341 340 345 340 337 332 327 325 323 322 323 328 345 53 30 346 283 191 194 247 290 301 286 216 148 108 67 52 76 8 52 233 231 175 164 193 200 248 262 266 179
353 351 350 349 346 343 344 344 345 342 337 333 328 325 322 320 320 322 337 161 185 214 313 223 249 283 267 235 294 127 118 112 77 148 90 25 227 227 206 168 183 160 318 288 284 281 154
350 349 347 347 341 344 345 345 346 343 337 335 331 325 321 317 317 321 215 229 26 19 102 295 187 210 232 148 196 219 115 118 126 135 170 164 235 15 341 286 295 240 196 232 232 359 36
349 348 347 343 340 345 346 344 345 343 337 335 330 325 319 314 324 226 247 287 310 189 64 266 259 275 144 153 292 194 176 133 51 202 165 240 293 260 240 254 147 278 204 220 134 78 208
349 347 346 344 343 347 345 344 344 342 337 332 329 323 312 255 295 197 69 333 112 68 84 150 198 93 58 142 202 136 209 60 162 186 93 257 218 266 328 215 182 223 149 65 54 91 68
349 349 347 345 343 346 345 343 342 342 335 334 330 322 249 177 236 248 318 315 61 43 131 178 133 156 117 35 18 71 93 63 119 180 11 238 270 227 218 226 187 94 73 40 47 74 42
352 350 348 345 341 341 344 343 343 341 337 332 326 304 198 194 226 322 302 68 43 133 294 177 167 152 114 158 223 140 136 170 178 84 337 326 257 271 163 130 21 90 55 346 14 16 194
349 348 346 344 342 341 345 344 343 342 338 332 315 220 231 237 311 350 70 52 185 212 232 357 107 89 151 160 282 75 98 186 147 89 106 155 333 241 199 184 180 59 141 155 199 196 251
348 349 347 346 343 341 347 345 344 342 340 341 105 151 265 256 204 342 77 84 222 214 294 114 86 96 178 109 130 113 167 195 215 172 182 156 281 317 358 167 119 176 124 176 105 4 79
351 349 347 346 344 342 346 344 343 342 342 341 249 55 271 103 160 91 76 242 256 228 299 122 156 147 175 190 137 147 186 207 254 182 145 199 32 351 308 62 33 109 143 48 14 136 131
350 350 347 347 345 344 346 345 344 341 338 342 76 64 322 80 180 51 160 236 271 254 222 166 223 122 165 151 155 178 189 178 148 44 131 131 115 288 41 25 340 1 19 51 111 100 153
351 352 349 348 347 345 346 346 344 346 342 130 115 66 318 6 57 18 190 211 278 279 261 268 116 107 164 144 126 157 164 40 342 175 88 97 131 82 145 297 213 20 102 113 116 228 71
348 348 351 348 347 347 346 348 349 350 357 347 85 124 314 65 126 293 289 284 264 307 351 344 97 88 85 105 112 116 108 318 55 66 135 175 33 49 359 351 9 43 350 95 95 75 190
346 348 350 350 349 349 348 351 352 352 350 281 92 84 336 47 102 146 316 284 291 299 266 66 45 99 88 44 11 130 109 22 29 105 76 82 91 150 183 201 181 309 333 60 104 110 176
348 348 349 351 351 351 352 352 354 353 350 60 28 203 184 220 287 204 119 292 315 304 2 17 20 49 139 103 71 75 45 51 20 356 63 94 120 183 185 223 217 235 283 310 206 186 164
348 348 349 352 353 354 355 356 357 356 351 76 93 90 10 147 311 146 160 248 252 77 348 5 91 350 50 107 158 171 146 169 176 31 76 358 133 82 295 300 324 270 6 326 84 110 86
347 351 352 353 355 357 358 360 0 4 358 57 337 338 108 296 20 108 202 271 303 170 39 72 129 77 60 97 164 125 83 130 155 151 112 80 129 99 260 4 338 334 308 287 52 45 140
347 349 352 354 354 357 359 1 4 7 17 47 306 71 57 308 76 36 334 350 15 332 124 15 56 88 330 57 101 46 45 19 340 54 97 130 104 97 198 28 252 244 264 94 106 44 52
348 350 352 354 353 357 358 360 2 4 8 259 308 59 77 26 299 343 7 2 9 6 47 67 17 307 283 45 54 27 345 4 5 36 217 84 124 91 133 151 289 303 255 193 136 308 284
347 349 351 353 353 355 357 358 360 2 3 21 312 266 90 108 286 291 332 6 84 11 8 25 354 324 65 74 67 142 214 226 319 293 71 76 71 113 142 148 197 241 245 120 120 288 197
346 349 348 351 352 352 354 356 357 359 0 349 295 17 85 60 268 93 129 195 97 86 127 316 339 23 53 75 89 162 245 216 267 328 313 42 23 148 144 181 288 250 222 119 88 241 163
340 346 350 349 347 347 349 350 353 355 358 3 281 349 89 183 276 227 266 141 52 81 138 263 37 350 44 78 131 203 164 238 72 278 186 170 139 171 97 97 247 10 99 168 208 38 144
333 336 338 341 344 347 346 343 346 350 355 3 315 351 328 161 247 289 267 267 216 194 139 9 180 175 185 93 124 117 143 69 148 229 22 14 175 174 164 212 272 289 117 130 144 132 178